Regional Weather Roundup
Issued by NWS

Home | Current Version | Previous Version | Text Only | Print | Product List | Glossary Off
Versions: 1 2 3 4 5 6 7 8 9 10 11 12 13 14 15 16 17 18 19 20 21 22 23 24 25 26 27 28 29 30 31 32 33 34 35 36 37 38 39 40 41 42 43 44 45 46 47 48 49 50

000
ASUS45 KBOU 091707
RWRCO

WEATHER ROUNDUP FOR COLORADO
NATIONAL WEATHER SERVICE DENVER/BOULDER CO
1000 AM MST TUE FEB 09 2016

NOTE: "FAIR" INDICATES FEW OR NO CLOUDS BELOW 12000 FEET WITH NO
SIGNIFICANT WEATHER AND/OR OBSTRUCTIONS TO VISIBILITY.

COZ001>005-013-030-031-091800-
...NORTHWEST COLORADO...

CITY           SKY/WX    TMP DP  RH WIND       PRES   REMARKS
CRAIG          CLOUDY     6   5  95 CALM      30.56S
HAYDEN         CLOUDY    21  12  68 SE10      30.53R WCI  10
MEEKER         CLOUDY    19  14  81 CALM      30.53S
MOUNT WERNER   NOT AVBL
STEAMBOAT SPGS CLOUDY    14  11  89 CALM      30.54S
WALDEN         CLOUDY    14   5  67 CALM      30.50S
$$

COZ006>008-011-091800-
...WEST CENTRAL VALLEYS...

CITY           SKY/WX    TMP DP  RH WIND       PRES   REMARKS
GRAND JUNCTION CLOUDY    30  22  72 SE6       30.56R WCI  24
MONTROSE       CLOUDY    29  17  61 SE3       30.58R
EAGLE          SUNNY     12  10  92 CALM      30.62F
RIFLE          CLOUDY    22  14  71 CALM      30.57S
DELTA          CLOUDY    31  20  63 CALM      30.58S
NUCLA          CLOUDY    32  21  64 CALM      30.56S
$$

COZ017>023-064>068-091800-
...SOUTHWEST COLORADO...

CITY           SKY/WX    TMP DP  RH WIND       PRES   REMARKS
DURANGO        CLOUDY    23  15  71 CALM      30.45S
CORTEZ         CLOUDY    35  19  52 E6        30.47R WCI  30
PAGOSA SPRINGS CLOUDY    33  10  38 CALM      30.45S
TELLURIDE      CLOUDY    32   4  30 CALM      30.52R
WOLF CREEK PAS CLOUDY    32  -6  19 NE16      30.56R WCI  21
$$

COZ009-010-012-014-032>034-037-058>063-091800-
...CENTRAL COLORADO...

CITY           SKY/WX    TMP DP  RH WIND       PRES   REMARKS
ASPEN          CLOUDY    28  14  55 CALM      30.51F
BUENA VISTA    CLOUDY    40  10  29 N15       30.42S
COPPER MTN     CLOUDY    30  -2  24 W15       30.53S WCI  19
BERTHOUD PASS  FAIR      18   9  68 N21G32    30.49R WCI   1
COTTONWOOD PAS CLOUDY    39   0  19 CALM      30.45S
GUNNISON       CLOUDY     0 -11  60 E5        30.63R WCI -10
KREMMLING      FOG      N/A N/A N/A CALM      30.61S VSB 1
LEADVILLE      CLOUDY    31   9  39 N6        30.48S WCI  25
MONARCH PASS   CLOUDY    27   3  36 W9G18     30.62S WCI  17
SALIDA         NOT AVBL
SUNLIGHT       CLOUDY    28  18  64 N7          N/A  WCI  21
WILKERSON PASS CLOUDY    32   0  25 N7        30.49R WCI  26
$$

COZ069>075-091800-
...SAN LUIS VALLEY/SANGRE DE CRISTO MOUNTAINS...

CITY           SKY/WX    TMP DP  RH WIND       PRES   REMARKS
ALAMOSA        SUNNY     30  19  63 CALM      30.47S
LA VETA PASS   SUNNY     37   3  23 CALM      30.47R
SAGUACHE       CLOUDY    36  14  41 W5        30.47R
$$

COZ035-036-038>040-091800-
...NORTHERN COLORADO FRONT RANGE...

CITY           SKY/WX    TMP DP  RH WIND       PRES   REMARKS
DENVER INTL AP MOSUNNY   44  20  38 S6        30.33R
DMNS CITY PARK   N/A     47  16  28 E8        30.32F
AURORA         MOSUNNY   45  19  36 SE5       30.34R
FRONT RANGE AP SUNNY     39  25  56 S9        30.34R
ERIE MUNI ARPT SUNNY     39  21  48 CALM      30.32F
BOULDER MUN AP SUNNY     45  19  36 CALM      30.32R
CENTENNIAL     MOSUNNY   41  21  44 E8        30.34R
BROOMFIELD     NOT AVBL
FORT COLLINS   SUNNY     30  21  69 CALM      30.33S
LONGMONT       SUNNY     40  21  48 CALM      30.34R
$$

COZ041-046-047-076>085-087-088-091800-
...PIKES PEAK/PALMER DIVIDE AND SOUTHERN FOOTHILLS...

CITY           SKY/WX    TMP DP  RH WIND       PRES   REMARKS
COLO. SPRINGS  MOSUNNY   40  19  43 NE7       30.36R
A. F. ACADEMY  SUNNY     35  13  40 CALM      30.34R
SCHRIEVER AFB  NOT AVBL
ELLICOTT       NOT AVBL
FALCON         NOT AVBL
FORT CARSON    SUNNY     36  22  57 N6        30.34R
LIMON          SUNNY     32  22  66 NW8       30.33S WCI  25
MONUMENT HILL  SUNNY     32  18  55 CALM      30.37R
TRINIDAD       SUNNY     48  19  31 SW7       30.36F
$$

COZ042>045-048>051-090-091-091800-
...NORTHEAST COLORADO...

CITY           SKY/WX    TMP DP  RH WIND       PRES   REMARKS
GREELEY ARPT   SUNNY     25  21  86 W5        30.34S WCI  19
AKRON          SUNNY     38  24  57 W15       30.28S
BURLINGTON     SUNNY     40  25  55 NW14      30.29R
WRAY           SUNNY     43  29  57 NW17      30.27R
STERLING       SUNNY     43  30  61 NW15G21   30.28R
HOLYOKE        SUNNY     43  28  56 NW13G18   30.27R
FORT MORGAN    SUNNY     43  27  53 W8        30.31S
$$

COZ086-089-092>099-091800-
...SOUTHEAST COLORADO...

CITY           SKY/WX    TMP DP  RH WIND       PRES   REMARKS
PUEBLO         SUNNY     43  24  47 NW7       30.34F
LA JUNTA       SUNNY     43  27  53 W9        30.35S
LAMAR          SUNNY     45  27  49 W17       30.32S
SPRINGFIELD      N/A     54  22  28 NW14G24   30.32S
$$



USA.gov is the U.S. government's official web portal to all federal, state and local government web resources and services.